Location: West Cummington
(42.4920°N, 72.9680°W)
Time: 08:19:23
(UTC-04:00)

Cosmos 1703 Rocket - Visible Passes

Search period start: 03 July 2015 00:00
Search period end: 13 July 2015 00:00
Orbit: 606 x 634 km, 82.5° (Epoch: 02 July)

Date Brightness Start Highest point End Pass type
(mag) Time Alt. Az. Time Alt. Az. Time Alt. Az.
03 Jul 3.6 21:53:13 10° N 21:57:36 82° W 22:01:19 14° S visible
04 Jul 4.6 22:11:12 10° NNW 22:15:20 42° W 22:19:19 10° SSW visible
05 Jul 5.6 22:29:31 10° NW 22:32:58 23° W 22:36:19 10° SW visible
06 Jul 3.7 21:08:49 10° N 21:13:07 57° E 21:17:22 10° SSE visible
06 Jul 6.3 22:48:42 10° WNW 22:50:33 12° W 22:52:12 10° WSW visible
07 Jul 3.7 21:26:34 10° NNW 21:30:55 74° W 21:35:13 10° S visible
08 Jul 4.9 21:44:35 10° NNW 21:48:38 38° W 21:52:37 10° SSW visible
09 Jul 5.9 22:02:59 10° NW 22:06:16 21° W 22:09:26 10° SW visible
10 Jul 6.5 22:22:32 10° WNW 22:23:51 11° W 22:24:55 10° W visible
11 Jul 3.9 20:59:54 10° NNW 21:04:14 67° W 21:08:31 10° S visible
12 Jul 5.2 21:17:58 10° NNW 21:21:56 34° W 21:25:49 10° SSW visible
